SKYSAT-C7 (42991 NORAD) Tracking and Keplerian Element Data

This shows tracking and keplerian element data for the satellite.

Feedback or suggestion? Click here.




ElementValue
Catalog42991
NameSKYSAT-C7
Epoch Orbit27394
Epoch Day269.31242099
Epoch Year2022
RAAN28.4215
Inclination97.3079
Eccentricity1.34E-05
Argument of Perigee210.9596
Mean Anonmoly149.1641
Mean Motion15.37972447
Decay Rate9.351E-05
L11 42991U 17068E 22269.31242099 .00009351 00000+0 25253-3 0 9995
L22 42991 97.3079 28.4215 0000134 210.9596 149.1641 15.37972447273944

Live tracking and technical data element details for SKYSAT-C7 (NORAD 42991). SKYSAT-C7 can be tracked NOW for your location showing map with azimuth and elevation plus other details from your city location.

Track the satellite on the map from your city or location and see movement details for azimuth, elevation, latitude, longitude, range, height, and movement on the map or in text.







IsCatalogInMostPopularTable: catalog: 42991, numindb: 605
Update: records affected: 1



GetName: 42991 SKYSAT-C7

Hit Count: updated at: Thu, 29 Sep 2022 10:16:00 GMT